Location: Woodstock
(43.1330°N, 80.7500°W)
Time: 05:21:14
(UTC-05:00)

Daily predictions for brighter satellites

Satellite Brightness Start Highest point End
(mag) Time Altitude Azimuth Time Altitude Azimuth Time Altitude Azimuth
Cosmos 2082 Rocket 4.4 04:10:23 18° NE 04:10:23 18° NE 04:11:51 10° NNE
USA 267 3.8 04:19:12 10° NE 04:24:01 53° NE 04:24:01 53° NE
Cosmos 1980 Rocket 2.8 04:43:32 55° E 04:43:32 55° E 04:48:24 10° SE
SeaSat 1 3.2 04:55:45 10° NNE 04:59:15 46° NE 04:59:15 46° NE
USA 234 3.3 04:54:25 10° ESE 05:00:56 70° NE 05:02:14 56° NNW
Meteor 2-4 Rocket 3.8 05:06:48 47° NNE 05:08:19 69° ENE 05:13:50 10° SSE
Meteor 1-13 Rocket 4.2 05:09:48 67° NNW 05:10:42 88° WSW 05:16:39 10° S
Meteor 1-11 Rocket 3.8 05:11:02 10° S 05:16:59 84° E 05:22:52 10° NNE
Timation 2 Rocket 4.5 05:11:32 10° SSW 05:18:19 68° ESE 05:25:09 10° NNE
CZ-2C R/B 4.3 05:15:01 10° NE 05:19:15 29° E 05:23:20 10° SSE
SL-16 R/B 3.2 05:18:14 21° N 05:21:37 43° ENE 05:26:59 10° SE
IDEFIX/ARIANE 42P 3.5 05:19:32 10° NNE 05:24:34 47° E 05:29:35 10° S
Cosmos 2360 4.1 05:25:24 65° WNW 05:25:56 70° WSW 05:31:36 10° SSE
Cosmos 1300 Rocket 3.9 05:22:30 10° S 05:26:44 61° E 05:31:01 10° NNE
Cosmos 2322 Rocket 3.1 05:24:18 21° N 05:27:54 47° ENE 05:33:21 10° SE
Cosmos 1092 Rocket 4.5 05:27:45 10° S 05:33:45 60° E 05:39:47 10° NNE
Cosmos 1025 Rocket 4.3 05:30:50 11° N 05:34:44 38° ENE 05:38:44 10° SE
Cosmos 1536 Rocket 3.4 05:35:23 70° SW 05:35:23 70° SW 05:39:22 10° S
Meteor 1-19 Rocket 4.4 05:35:59 50° W 05:36:00 50° W 05:41:38 10° SSW
EO 1 Del DPAF 3.2 05:36:13 10° SSE 05:40:02 81° ENE 05:40:30 67° N
CZ-4C R/B 2.1 05:39:07 16° SSW 05:43:20 83° SE 05:49:19 10° NE
BREEZE-M DEB (TANK) 3.8 05:40:07 33° WNW 05:43:23 50° N 05:46:49 10° ENE
COSMO-SKYMED 1 2.4 05:40:00 10° S 05:44:19 78° WSW 05:45:33 46° NNW
Cosmos 2279 Rocket 4.4 05:46:12 39° W 05:46:12 39° W 05:51:40 10° SSW
Cosmos 1697 Rocket 4.2 05:48:13 20° SW 05:48:13 20° SW 05:50:33 10° SSW
Okean-O 2.5 05:41:48 10° NNE 05:46:16 87° WNW 05:50:42 10° SSW
Meteor 1-5 Rocket 4.0 05:41:02 10° S 05:46:30 84° W 05:51:52 10° N
Lacrosse 5 rocket 3.8 05:48:49 13° SSW 05:48:49 13° SSW 05:49:36 10° SSW
RESURS DK-1 3.4 05:50:26 30° SW 05:50:26 30° SW 05:53:07 10° S
Cosmos 2082 Rocket 3.5 05:52:17 23° NNW 05:52:17 23° NNW 05:55:28 10° N
Cosmos 192 4.5 05:47:57 10° SSW 05:52:49 74° ESE 05:57:44 10° NNE
Cosmos 1538 Rocket 3.9 05:49:27 10° SSW 05:54:39 75° WNW 05:59:59 10° NNE
Cosmos 1833 Rocket 4.1 05:58:35 20° NNW 05:58:35 20° NNW 06:01:26 10° N
Meteor 1-4 Rocket 2.8 05:55:45 10° S 05:59:31 73° E 06:03:19 10° NNE
Okean 1 Rocket 3.0 05:56:09 10° S 06:00:31 90° E 06:04:57 10° N
CZ-4 R/B 4.4 05:59:23 10° NE 06:02:25 19° E 06:05:28 10° SE
Cosmos 1500 3.4 05:59:48 10° S 06:03:38 72° E 06:07:28 10° NNE
Meteor 2-11 Rocket 4.5 05:59:52 10° N 06:06:01 81° E 06:12:06 10° S
deb Kosmos-1763 4.0 06:02:31 10° SSW 06:06:15 87° ESE 06:10:00 10° NNE
USA 267 3.9 06:02:28 10° NE 06:08:21 37° NNW 06:11:24 25° WNW
OE (NEXTSAT) 4.3 06:07:57 48° W 06:08:50 81° SSW 06:12:24 10° ESE
Meteor 1-23 Rocket 4.4 06:10:52 11° NNW 06:15:54 47° W 06:21:10 10° SSW
SJ-12 4.0 06:13:47 10° NNE 06:17:53 80° ESE 06:21:56 10° S
Okean 2 3.3 06:17:13 12° NNW 06:20:57 62° W 06:24:59 10° S
APEX 3.9 06:18:43 10° S 06:21:55 52° ESE 06:25:56 10° NE
SMAP 4.4 06:18:28 10° NNE 06:22:55 43° E 06:27:20 10° S
Cosmos 1066 Rocket 4.3 06:18:00 10° N 06:23:23 77° E 06:28:47 10° SSE
Cosmos 2360 Rocket 2.8 06:19:24 10° NNW 06:25:01 56° ENE 06:30:34 10° SE
Cosmos 1980 Rocket 3.4 06:25:22 20° W 06:26:18 21° W 06:30:22 10° SSW
PAYLOAD A 4.4 06:24:06 10° N 06:29:16 45° WNW 06:34:20 10° SW
Cosmos 1975 2.9 06:26:02 10° S 06:30:00 81° E 06:34:00 10° N
Cosmos 2219 Rocket 4.2 06:30:23 10° N 06:34:45 22° NE 06:39:06 10° E
GEOS 3 Rocket 3.9 06:30:03 10° NE 06:35:30 79° SE 06:40:51 10° SSW
Cosmos 1666 3.7 06:32:19 10° S 06:36:01 49° E 06:39:44 10° NNE
SeaSat 1 3.8 06:34:21 10° N 06:37:43 19° NW 06:39:04 17° WNW
Cosmos 1184 Rocket 3.1 06:39:08 11° NNW 06:42:11 46° W 06:45:23 10° S
ATLAS CENTAUR R/B 3.8 06:40:28 10° S 06:43:28 23° ESE 06:46:27 10° ENE
Cosmos 2285 Rocket 4.0 06:37:11 10° SSW 06:43:30 81° WNW 06:49:51 10° NNE
USA 234 4.0 06:38:15 10° SSE 06:44:12 36° SW 06:49:35 13° WNW
MSX 3.9 06:38:47 10° N 06:44:25 58° WNW 06:50:01 10° SSW
Cosmos 2237 Rocket 4.5 06:45:55 10° N 06:49:29 17° NE 06:53:01 10° E
Meteor 1-12 Rocket 4.3 06:45:01 10° S 06:50:43 87° W 06:56:25 10° N
Ariane Rocket 3.2 06:45:44 10° NNE 06:50:49 77° ESE 06:55:54 10° S
Cosmos 389 Rocket 2.5 06:51:26 10° S 06:55:04 86° W 06:58:41 10° N
CZ-2C R/B 3.0 06:53:11 10° N 06:57:28 31° WNW 07:01:36 10° SW
Cosmos 1455 Rocket 3.2 06:53:31 10° S 06:57:59 84° E 07:02:28 10° N
Okean 1-7 Rocket 4.3 06:53:53 10° NNW 06:58:00 35° W 07:02:06 10° SSW
CSL-04 Debris 4.2 06:53:38 10° NNE 06:59:07 89° WNW 07:04:35 10° SSW
Cosmos 1544 Rocket 3.5 06:57:39 10° S 07:02:06 81° W 07:06:35 10° N
IRAS Rocket 4.3 06:57:02 10° NNE 07:02:36 88° WNW 07:08:10 10° SSW
ATLAS 5 CENTAUR R/B 3.9 06:57:41 10° NNW 07:02:40 28° NE 07:08:05 10° E
IDEFIX/ARIANE 42P 3.6 06:59:47 10° NNW 07:03:52 24° WNW 07:07:56 10° WSW
SL-16 R/B 3.1 07:00:41 10° NW 07:05:30 29° WSW 07:10:17 10° SSW
S3M 4.0 06:59:45 10° N 07:05:56 75° W 07:12:10 10° S
Cosmos 1624 Rocket 4.2 07:03:45 10° NNW 07:09:07 83° ENE 07:14:28 10° SSE
Cosmos 2322 Rocket 3.2 07:07:01 10° NW 07:11:39 27° WSW 07:16:18 10° SSW
Cosmos 1025 Rocket 4.5 07:09:08 10° NW 07:12:00 18° W 07:14:52 10° SW
Cosmos 1484 Rocket 3.2 07:10:12 10° N 07:13:50 38° WNW 07:17:24 10° SW
Cosmos 1680 Rocket 3.8 07:09:20 10° SW 07:14:18 43° WNW 07:19:18 10° N
Cosmos 1842 3.5 07:11:52 10° N 07:15:50 75° E 07:19:47 10° SSE
Cosmos 1743 3.1 07:14:41 10° SSW 07:18:17 40° WNW 07:21:55 10° N
CSL-04 Rocket 3.8 07:12:50 10° N 07:18:17 57° WNW 07:23:40 10° SSW
Elektron 1 4.4 07:14:38 10° NW 07:20:02 84° NE 07:23:08 10° SE
Cosmos 2237 4.3 07:14:40 10° NNW 07:20:24 80° WSW 07:26:04 10° SSE
